Le nostre stazioni meteo in Italia

Pubblicità
Il mio iltempo24.it
Tyndrum, Gran Bretagna (99020): Temperatura & dewpoint: 10.12.2017 16:00:00 - 16.12.2017 16:00:00 (GMT)Tyndrum, Gran Bretagna (99020): precipitazioni: 10.12.2017 16:00:00 - 16.12.2017 16:00:00 (GMT)
Data & Tempo tt [°C] td [°C] rr [mm]
16.12.2017 16:00:00 -4,3 -4,9 0,0
16.12.2017 15:00:00 -3,5 -4,2 0,0
16.12.2017 14:00:00 -2,6 -3,3 0,0
16.12.2017 13:00:00 -2,6 -3,1 0,0
16.12.2017 12:00:00 -2,4 -2,8 0,0
16.12.2017 11:00:00 -3,8 -4,3 0,0
16.12.2017 10:00:00 -4,6 -5,1 0,0
16.12.2017 09:00:00 -5,5 -6,0 0,0
16.12.2017 08:00:00 -6,0 -6,8 0,0
16.12.2017 07:00:00 -5,6 -6,3 0,0
16.12.2017 06:00:00 -5,5 -6,0 0,0
16.12.2017 05:00:00 -6,4 -7,3 0,0
16.12.2017 04:00:00 -6,0 -6,6 0,0
16.12.2017 03:00:00 -6,3 -7,3 0,0
16.12.2017 02:00:00 -5,9 -6,9 0,0
16.12.2017 01:00:00 -4,9 -5,7 0,0
16.12.2017 00:00:00 -4,2 -4,8 0,0
15.12.2017 23:00:00 -3,5 -4,0 0,0
15.12.2017 22:00:00 -3,9 -4,7 0,0
15.12.2017 21:00:00 -2,8 -3,6 0,0
15.12.2017 20:00:00 -2,4 -3,0 0,0
15.12.2017 19:00:00 -2,2 -2,9 0,0
15.12.2017 18:00:00 - - 0,0
15.12.2017 17:00:00 -0,8 -1,6 0,0
15.12.2017 16:00:00 -1,5 -2,2 0,0
15.12.2017 15:00:00 -0,9 -2,3 0,0
15.12.2017 14:00:00 1,4 -0,5 0,0
15.12.2017 13:00:00 2,6 0,0 0,0
15.12.2017 12:00:00 1,8 -1,4 0,0
15.12.2017 11:00:00 3,1 -1,6 0,0
15.12.2017 10:00:00 2,9 -1,4 0,0
15.12.2017 09:00:00 3,1 -1,3 0,0
15.12.2017 08:00:00 2,7 -0,1 0,0
15.12.2017 07:00:00 3,4 -0,2 0,0
15.12.2017 06:00:00 3,1 0,0 0,0
15.12.2017 05:00:00 2,9 0,7 0,0
15.12.2017 04:00:00 2,3 0,6 0,0
15.12.2017 03:00:00 0,7 -0,5 0,0
15.12.2017 02:00:00 1,7 0,5 0,0
15.12.2017 01:00:00 0,1 -0,7 0,0
15.12.2017 00:00:00 1,1 -0,3 0,0
14.12.2017 23:00:00 -0,3 -1,4 0,0
14.12.2017 22:00:00 1,6 1,4 0,0
14.12.2017 21:00:00 0,2 0,0 0,0
14.12.2017 20:00:00 0,2 0,0 0,0
14.12.2017 19:00:00 0,2 -0,1 0,0
14.12.2017 18:00:00 0,2 -0,1 0,0
14.12.2017 17:00:00 0,2 -0,2 0,0
14.12.2017 16:00:00 0,2 -0,3 0,0
14.12.2017 15:00:00 0,4 -0,5 0,0
14.12.2017 14:00:00 1,2 -0,4 0,0
14.12.2017 13:00:00 1,8 0,1 0,0
14.12.2017 12:00:00 1,0 0,5 0,0
14.12.2017 11:00:00 0,5 0,1 0,0
14.12.2017 10:00:00 0,4 -0,1 0,0
14.12.2017 09:00:00 0,5 -0,1 0,0
14.12.2017 08:00:00 1,0 0,3 0,0
14.12.2017 07:00:00 0,5 -0,2 0,0
14.12.2017 06:00:00 0,6 0,1 0,0
14.12.2017 05:00:00 0,7 -0,3 0,0
14.12.2017 04:00:00 1,3 0,3 0,0
14.12.2017 03:00:00 0,0 -0,3 0,0
14.12.2017 02:00:00 -0,7 -1,1 0,0
14.12.2017 01:00:00 0,1 -0,3 0,0
14.12.2017 00:00:00 0,1 -0,3 0,0
13.12.2017 23:00:00 0,1 -0,3 0,0
13.12.2017 22:00:00 0,3 0,0 0,0
13.12.2017 21:00:00 0,0 -0,3 0,0
13.12.2017 20:00:00 0,2 -0,2 0,0
13.12.2017 19:00:00 0,3 -0,1 0,0
13.12.2017 18:00:00 0,4 -0,3 0,0
13.12.2017 17:00:00 0,5 -0,1 0,0
13.12.2017 16:00:00 0,4 -0,5 0,0
13.12.2017 15:00:00 1,1 -0,1 0,0
13.12.2017 14:00:00 1,6 0,4 0,0
13.12.2017 13:00:00 2,4 1,6 0,0
13.12.2017 12:00:00 2,0 1,1 0,2
13.12.2017 11:00:00 1,9 1,4 0,4
13.12.2017 10:00:00 1,3 0,8 1,0
13.12.2017 09:00:00 1,1 0,2 2,0
13.12.2017 08:00:00 3,2 1,6 5,8
13.12.2017 07:00:00 3,8 2,2 11,8
13.12.2017 06:00:00 3,3 1,8 0,0
13.12.2017 05:00:00 3,4 1,6 0,0
13.12.2017 04:00:00 2,5 2,4 0,0
13.12.2017 03:00:00 0,3 0,2 0,0
13.12.2017 02:00:00 0,2 0,0 0,0
13.12.2017 01:00:00 0,5 0,3 0,0
13.12.2017 00:00:00 0,7 0,4 0,0
12.12.2017 23:00:00 0,5 0,2 0,0
12.12.2017 22:00:00 0,3 0,0 0,0
12.12.2017 21:00:00 0,7 0,1 0,0
12.12.2017 20:00:00 1,6 1,1 0,0
12.12.2017 19:00:00 0,9 0,6 0,0
12.12.2017 18:00:00 1,0 0,8 0,0
12.12.2017 17:00:00 0,3 -0,1 0,0
12.12.2017 16:00:00 -0,1 -0,3 0,0
12.12.2017 15:00:00 -0,7 -1,0 0,0
12.12.2017 14:00:00 -1,7 -2,0 0,0
12.12.2017 13:00:00 -2,3 -2,6 -
12.12.2017 12:00:00 -3,6 -4,1 0,0
12.12.2017 11:00:00 -5,5 -6,1 0,0
12.12.2017 10:00:00 -7,3 -8,2 0,0
12.12.2017 09:00:00 -8,1 -9,0 0,0
12.12.2017 08:00:00 -7,9 -8,7 0,0
12.12.2017 07:00:00 -8,1 -9,0 0,0
12.12.2017 06:00:00 -8,0 -8,8 0,0
12.12.2017 05:00:00 -8,1 -9,0 0,0
12.12.2017 04:00:00 -7,9 -8,9 0,0
12.12.2017 03:00:00 -7,9 -9,0 0,0
12.12.2017 02:00:00 -7,6 -9,0 0,0
12.12.2017 01:00:00 -5,3 -5,8 0,0
12.12.2017 00:00:00 -5,2 -6,0 0,0
11.12.2017 23:00:00 -4,4 -5,5 0,0
11.12.2017 22:00:00 -3,0 -3,7 0,0
11.12.2017 21:00:00 -2,8 -3,8 0,0
11.12.2017 20:00:00 -2,1 -2,9 0,0
11.12.2017 19:00:00 -3,1 -4,3 0,0
11.12.2017 18:00:00 -2,1 -3,7 0,0
11.12.2017 17:00:00 -0,4 -2,1 0,0
11.12.2017 16:00:00 -0,4 -2,5 0,0
11.12.2017 15:00:00 1,6 -1,0 0,0
11.12.2017 14:00:00 -0,6 -1,3 0,0
11.12.2017 13:00:00 0,2 -1,0 0,0
11.12.2017 12:00:00 -1,2 -1,8 0,0
11.12.2017 11:00:00 -3,4 -3,9 0,0
11.12.2017 10:00:00 -3,9 -4,7 0,0
11.12.2017 09:00:00 -2,5 -3,0 0,0
11.12.2017 08:00:00 -4,1 -4,6 0,0
11.12.2017 07:00:00 -6,9 -7,6 0,0
11.12.2017 06:00:00 -7,4 -8,3 0,0
11.12.2017 05:00:00 -6,4 -7,1 0,0
11.12.2017 04:00:00 -6,6 -7,7 0,0
11.12.2017 03:00:00 -5,9 -6,4 0,0
11.12.2017 02:00:00 -7,1 -8,0 0,0
11.12.2017 01:00:00 -7,3 -7,9 0,0
11.12.2017 00:00:00 -9,3 -10,2 0,0
10.12.2017 23:00:00 -10,1 -11,3 0,0
10.12.2017 22:00:00 -10,5 -11,9 0,0
10.12.2017 21:00:00 -10,4 -11,5 0,0
10.12.2017 20:00:00 -10,1 -11,2 0,0
10.12.2017 19:00:00 -9,5 -10,5 0,0
10.12.2017 18:00:00 -9,4 -10,5 0,0
10.12.2017 17:00:00 -9,0 -10,2 0,0
10.12.2017 16:00:00 -8,0 -9,1 0,0

tt = Temperatura
td = dewpoint
rr = precipitazioni

Stazioni seguenti

WeatherPro
AMSI
MeteoEarth